Portland, ME

3:45 AM EST on December 11, 2019 (GMT -0500)
Portland International

Weather History for KPWM - October, 2019

Change the Weather History Date:

Saturday, October 5, 2019

  Actual Average Record
Temperature  
Mean Temperature 46 °F 53 °F  
Max Temperature 61 °F 63 °F 81 °F (1946)
Min Temperature 32 °F 43 °F 26 °F (1963)
Degree Days  
Heating Degree Days 18 13  
Month to date heating degree days 69 59  
Since 1 July heating degree days 231 280  
Cooling Degree Days 0 0  
Month to date cooling degree days 0 0  
Year to date cooling degree days 474 358  
Moisture  
Dew Point 32 °F    
Average Humidity 59    
Maximum Humidity 83    
Minimum Humidity 27    
Precipitation  
Precipitation 0.00 in 0.15 in 1.73 in (1985)
Month to date precipitation 0.39 0.74  
Year to date precipitation 35.12 34.17  
Snow  
Snow 0.00 in 0.00 in T in (1968)
Month to date snowfall 0.0 0.0  
Since 1 July snowfall 0.0 0.0  
Since 1 September snowfall 0.0 0.0  
Snow Depth 0.00 in    
Sea Level Pressure  
Sea Level Pressure 30.38 in    
Wind  
Wind Speed 5 mph ()    
Max Wind Speed 14 mph    
Max Gust Speed 20 mph    
Visibility 10.0 miles    
Events      
T = Trace of Precipitation, MM = Missing Value Source: Averaged Metar Reports

Daily Weather History Graph

Daily Weather History Graph

Search for Another Location

Airport or City:

Astronomy

Oct. 05, 2019 Rise Set
Actual Time 6:43 AM EDT 6:15 PM EDT
Civil Twilight 6:14 AM EDT 6:44 PM EDT
Nautical Twilight 5:41 AM EDT 7:17 PM EDT
Astronomical Twilight 5:07 AM EDT 7:50 PM EDT
Moon 2:16 PM EDT (10/5) 11:25 PM EDT (10/5)
Length of Visible Light 12h 29m
Length of Day
11h 32m
Waxing Crescent, 50% of the Moon is Illuminated
Oct 5
Waxing Crescent
Oct 5
First Quarter
Oct 13
Full
Oct 21
Last Quarter
Oct 27
New

Hourly Weather History & Observations

Time (EDT) Temp. Windchill Dew Point Humidity Pressure Visibility Wind Dir Wind Speed Gust Speed Precip Events Conditions
12:51 AM 42.1 °F 37.1 °F 28.0 °F 58% 30.33 in 10.0 mi NW 8.1 mph - N/A   Clear
1:51 AM 41.0 °F 38.0 °F 28.9 °F 62% 30.33 in 10.0 mi NNW 4.6 mph - N/A   Clear
2:51 AM 37.0 °F 34.5 °F 28.9 °F 73% 30.34 in 10.0 mi SSW 3.5 mph - N/A   Clear
3:51 AM 36.0 °F 32.1 °F 28.9 °F 76% 30.35 in 10.0 mi WSW 4.6 mph - N/A   Clear
4:51 AM 34.0 °F 29.8 °F 28.0 °F 79% 30.38 in 10.0 mi West 4.6 mph - N/A   Clear
5:51 AM 36.0 °F 31.1 °F 28.9 °F 76% 30.39 in 10.0 mi West 5.8 mph - N/A   Clear
6:51 AM 33.1 °F 26.9 °F 28.0 °F 82% 30.41 in 10.0 mi WNW 6.9 mph - N/A   Clear
7:51 AM 39.0 °F 34.8 °F 30.9 °F 73% 30.42 in 10.0 mi West 5.8 mph - N/A   Clear
8:51 AM 46.0 °F 40.6 °F 33.1 °F 61% 30.43 in 10.0 mi NW 11.5 mph - N/A   Clear
9:51 AM 50.0 °F - 32.0 °F 50% 30.44 in 10.0 mi NNW 10.4 mph - N/A   Clear
10:51 AM 53.1 °F - 32.0 °F 45% 30.43 in 10.0 mi WNW 10.4 mph 19.6 mph N/A   Clear
11:51 AM 54.0 °F - 30.9 °F 41% 30.43 in 10.0 mi Calm Calm - N/A   Clear
12:51 PM 57.0 °F - 28.9 °F 34% 30.40 in 10.0 mi WNW 6.9 mph - N/A   Clear
1:51 PM 57.9 °F - 26.1 °F 30% 30.39 in 10.0 mi WNW 6.9 mph - N/A   Clear
2:51 PM 60.1 °F - 27.0 °F 28% 30.38 in 10.0 mi Variable 6.9 mph - N/A   Clear
3:51 PM 60.1 °F - 27.0 °F 28% 30.37 in 10.0 mi Calm Calm - N/A   Clear
4:51 PM 57.0 °F - 37.0 °F 47% 30.35 in 10.0 mi South 8.1 mph - N/A   Clear
5:51 PM 54.0 °F - 37.9 °F 55% 30.36 in 10.0 mi South 6.9 mph - N/A   Clear
6:51 PM 50.0 °F - 39.0 °F 66% 30.37 in 10.0 mi SSW 6.9 mph - N/A   Partly Cloudy
7:51 PM 48.9 °F - 37.9 °F 66% 30.37 in 10.0 mi SW 3.5 mph - N/A   Clear
8:51 PM 45.0 °F - 39.0 °F 80% 30.37 in 10.0 mi Calm Calm - N/A   Clear
9:51 PM 44.1 °F - 37.0 °F 76% 30.38 in 10.0 mi Calm Calm - N/A   Clear
11:51 PM 42.1 °F - 36.0 °F 79% 30.39 in 10.0 mi Calm Calm - N/A   Clear